User: anonymous   Login
Location: Demmingen
(48.6757°N, 10.4375°E)
Time: 00:32:15
(UTC+00:00)
Language:

SL-16 R/B - Orbit

View from above orbital plane
View from above orbital plane
View from above satellite
View from above satellite

Ground track
Ground track

The orbit data is extracted from the following two-line orbital elements,

1 31793U 07029B   24194.83635189 -.00000127  00000-0 -41136-4 0  9995
2 31793  70.9759   3.6744 0002297 257.7345 202.7808 14.14636806879919
Epoch (UTC): 12 July 2024 20:04:20
Eccentricity: 0.0002297
inclination: 70.9759°
perigee height: 842 km
apogee height: 845 km
right ascension of ascending node: 3.6744°
argument of perigee: 257.7345°
revolutions per day: 14.14636806
mean anomaly at epoch: 202.7808°
orbit number at epoch: 87991

The dashed part of the orbit path shows where the satellite is in the earth's shadow,  

DLR